CW6421 Weather Reports


time (UTC)temp
C
wind
direction
speed
KPH
gust
KPH
rain 1hr
cm
rain 24hr
cm
rain mn
cm
humidity
%
barometer
mb
20260508090527 12 45 8.0 16.1 0.00 0.05 0.00 74 1020.8
20260508085527 12 42 6.4 16.1 0.00 0.05 0.00 74 1020.8
20260508084529 12 60 4.8 19.3 0.00 0.05 0.00 74 1020.8
20260508082527 11 50 4.8 17.7 0.00 0.05 0.00 76 1020.8
20260508081530 11 59 4.8 17.7 0.00 0.05 0.00 77 1020.8
20260508080528 11 51 8.0 17.7 0.00 0.05 0.00 78 1020.4
20260508075526 11 47 6.4 16.1 0.00 0.05 0.00 78 1020.4
20260508074529 11 59 12.9 17.7 0.00 0.05 0.00 79 1020.4
20260508072526 10 60 9.7 17.7 0.00 0.05 0.00 81 1020.4
20260508071529 10 61 12.9 17.7 0.00 0.05 0.00 81 1020.4
20260508070527 10 64 11.3 16.1 0.00 0.05 0.00 82 1020.0
20260508064530 9 30 9.7 16.1 0.00 0.05 0.00 82 1020.0
20260508061529 8 45 9.7 16.1 0.00 0.05 0.00 84 1020.0
20260508060529 8 42 11.3 16.1 0.00 0.05 0.00 84 1019.8
20260508055527 8 34 11.3 16.1 0.00 0.05 0.00 84 1019.8
20260508054530 8 49 11.3 16.1 0.00 0.05 0.00 84 1019.8
20260508052527 8 55 12.9 16.1 0.00 0.05 0.00 84 1019.8
20260508051529 8 41 11.3 14.5 0.00 0.05 0.00 84 1019.8
20260508050528 8 44 11.3 12.9 0.00 0.05 0.00 84 1019.5
20260508045527 8 30 9.7 12.9 0.00 0.05 0.00 84 1019.5
20260508044528 8 40 8.0 11.3 0.00 0.05 0.00 84 1019.5
20260508043527 8 31 8.0 11.3 0.00 0.05 0.00 84 1019.5
20260508042528 7 32 6.4 12.9 0.00 0.05 0.00 84 1019.5
20260508041531 7 27 9.7 12.9 0.00 0.05 0.00 84 1019.5
20260508040529 7 35 8.0 11.3 0.00 0.05 0.00 84 1019.3
20260508034528 7 28 9.7 11.3 0.00 0.05 0.00 84 1019.3
20260508033527 7 16 9.7 11.3 0.00 0.05 0.00 84 1019.3
20260508032526 7 22 9.7 12.9 0.00 0.05 0.00 84 1019.3
20260508031528 7 22 8.0 11.3 0.00 0.05 0.00 84 1019.3
20260508030527 7 20 6.4 8.0 0.00 0.05 0.00 84 1019.2
20260508025527 7 15 6.4 6.4 0.00 0.05 0.00 84 1019.2
20260508024528 8 326 4.8 6.4 0.00 0.05 0.00 84 1019.2
20260508023527 8 324 4.8 4.8 0.00 0.05 0.00 84 1019.2
20260508022526 8 328 6.4 6.4 0.00 0.05 0.00 84 1019.2
20260508021528 8 279 3.2 4.8 0.00 0.05 0.00 84 1019.2
20260508020529 8 271 3.2 4.8 0.00 0.05 0.00 84 1019.0
20260508015526 8 276 1.6 4.8 0.00 0.05 0.00 84 1019.0
20260508013527 8 223 3.2 4.8 0.00 0.05 0.00 84 1019.0
20260508012526 8 221 1.6 4.8 0.00 0.05 0.00 84 1019.0
20260508011529 8 281 0.0 4.8 0.00 0.05 0.00 84 1019.0
20260508010527 8 265 3.2 4.8 0.00 0.05 0.00 84 1019.1
20260508005526 8 252 3.2 4.8 0.00 0.05 0.00 84 1019.1
20260508003527 8 251 6.4 8.0 0.00 0.05 0.00 84 1019.1
20260508002526 8 260 8.0 9.7 0.00 0.05 0.00 84 1019.1
20260508001529 8 259 4.8 4.8 0.00 0.05 0.00 85 1019.1
20260508000526 8 260 4.8 6.4 0.00 0.05 0.00 85 1019.2
20260507235527 8 262 3.2 6.4 0.00 0.05 0.00 85 1019.2
20260507234530 8 229 6.4 8.0 0.00 0.05 0.00 85 1019.2
20260507233526 8 222 4.8 8.0 0.00 0.05 0.00 85 1019.2
20260507232526 8 227 3.2 6.4 0.00 0.05 0.00 85 1019.2
20260507230528 8 240 4.8 6.4 0.00 0.05 0.00 85 1018.9
20260507225526 8 240 3.2 4.8 0.00 0.05 0.00 85 1018.9
20260507224530 8 6 1.6 6.4 0.00 0.05 0.00 85 1018.9
20260507223526 8 9 4.8 6.4 0.00 0.05 0.00 85 1018.9
20260507221528 9 356 0.0 6.4 0.00 0.05 0.00 85 1018.9
20260507220527 9 298 0.0 6.4 0.00 0.05 0.00 85 1018.7
20260507215527 9 298 1.6 6.4 0.00 0.05 0.00 85 1018.7
20260507214530 9 305 4.8 6.4 0.00 0.05 0.00 85 1018.7
20260507213527 9 307 3.2 6.4 0.00 0.05 0.00 85 1018.7
20260507212528 9 307 3.2 8.0 0.00 0.05 0.00 85 1018.7
20260507211528 10 308 4.8 6.4 0.00 0.05 0.00 85 1018.7
20260507210528 10 293 3.2 8.0 0.00 0.05 0.00 85 1018.1
20260507205527 10 290 6.4 8.0 0.00 0.05 0.00 85 1018.1
20260507204529 9 288 4.8 8.0 0.00 0.05 0.00 85 1018.1
20260507203526 10 289 3.2 8.0 0.00 0.05 0.00 85 1018.1
20260507202528 9 292 3.2 8.0 0.00 0.05 0.00 85 1018.1
20260507201531 9 270 8.0 8.0 0.00 0.05 0.00 85 1018.1
20260507200527 9 270 4.8 8.0 0.00 0.05 0.00 84 1017.5
20260507195527 9 270 4.8 6.4 0.00 0.05 0.00 84 1017.5
20260507194530 9 281 6.4 6.4 0.00 0.03 0.00 84 1017.5
20260507192526 9 285 6.4 8.0 0.00 0.03 0.00 83 1017.5
20260507184529 10 272 3.2 12.9 0.00 0.03 0.00 82 1017.1
20260507183526 10 262 3.2 12.9 0.00 0.03 0.00 82 1017.1
20260507182526 10 265 3.2 12.9 0.00 0.03 0.00 81 1017.1
20260507181529 10 152 1.6 11.3 0.00 0.03 0.00 81 1017.1
20260507180528 10 168 3.2 19.3 0.00 0.03 0.00 80 1016.6
20260507175527 10 162 1.6 17.7 0.00 0.03 0.00 80 1016.6
20260507174529 10 165 3.2 16.1 0.00 0.03 0.00 80 1016.6
20260507173525 10 161 4.8 19.3 0.00 0.03 0.00 80 1016.6
20260507172526 10 166 3.2 19.3 0.00 0.03 0.00 80 1016.6
20260507171530 10 155 6.4 16.1 0.00 0.00 0.00 79 1016.6
20260507170528 10 155 8.0 17.7 0.00 0.00 0.00 79 1016.5
20260507165526 10 159 4.8 17.7 0.00 0.00 0.00 78 1016.5
20260507164530 10 124 9.7 17.7 0.00 0.00 0.00 78 1016.5
20260507163526 10 120 8.0 20.9 0.00 0.00 0.00 78 1016.5
20260507162528 10 117 9.7 19.3 0.00 0.00 0.00 78 1016.5
20260507161530 10 121 11.3 17.7 0.00 0.00 0.00 78 1016.5
20260507160526 10 120 12.9 22.5 0.00 0.00 0.00 78 1016.1
20260507155527 10 117 11.3 24.1 0.00 0.00 0.00 78 1016.1
20260507154530 11 98 9.7 25.7 0.00 0.00 0.00 78 1016.1
20260507153528 11 84 12.9 20.9 0.00 0.00 0.00 78 1016.1
20260507152526 11 95 11.3 22.5 0.00 0.00 0.00 78 1016.1
20260507151529 11 92 14.5 24.1 0.00 0.00 0.00 78 1016.1
20260507150529 11 96 14.5 27.4 0.00 0.00 0.00 78 1015.7
20260507144530 11 71 12.9 25.7 0.00 0.00 0.00 78 1015.7
20260507143528 11 79 12.9 29.0 0.00 0.00 0.00 79 1015.7
20260507142527 10 73 14.5 30.6 0.00 0.00 0.00 79 1015.7
20260507141531 10 74 14.5 27.4 0.00 0.00 0.00 79 1015.7
20260507140527 10 77 16.1 27.4 0.00 0.00 0.00 80 1015.5
20260507135528 10 67 12.9 25.7 0.00 0.00 0.00 80 1015.5
20260507134530 10 80 17.7 25.7 0.00 0.00 0.00 80 1015.5
20260507133527 10 69 14.5 24.1 0.00 0.00 0.00 80 1015.5
20260507132527 10 66 14.5 25.7 0.00 0.00 0.00 80 1015.5
20260507131529 10 53 16.1 27.4 0.00 0.00 0.00 80 1015.5
20260507130528 10 70 19.3 24.1 0.00 0.00 0.00 80 1015.1
20260507125525 10 61 17.7 24.1 0.00 0.00 0.00 80 1015.1
20260507124529 10 40 17.7 24.1 0.00 0.00 0.00 80 1015.1
20260507123527 10 21 16.1 24.1 0.00 0.00 0.00 80 1015.1
20260507122527 10 38 17.7 24.1 0.00 0.00 0.00 80 1015.1
20260507121530 10 50 14.5 27.4 0.00 0.00 0.00 80 1015.1
20260507120527 10 60 12.9 27.4 0.00 0.00 0.00 80 1014.9
20260507115526 10 47 11.3 27.4 0.00 0.00 0.00 81 1014.9
20260507114529 9 48 17.7 29.0 0.00 0.00 0.00 81 1014.9
20260507113527 9 45 19.3 30.6 0.00 0.00 0.00 82 1014.9
20260507111530 9 58 16.1 29.0 0.00 0.00 0.00 82 1014.9
20260507110527 9 59 14.5 30.6 0.00 0.00 0.00 83 1014.5
20260507105527 9 52 12.9 30.6 0.00 0.03 0.00 83 1014.5
20260507104529 9 60 19.3 27.4 0.00 0.03 0.00 83 1014.5
20260507102527 9 50 16.1 30.6 0.00 0.05 0.00 83 1013.6
20260507101531 8 46 19.3 29.0 0.00 0.08 0.00 83 1013.6
20260507100527 9 50 17.7 29.0 0.00 0.10 0.00 83 1013.6
20260507094530 9 63 19.3 29.0 0.00 0.13 0.00 83 1013.6
20260507092527 9 61 19.3 32.2 0.00 0.15 0.00 83 1013.6